"Pseudo-MPEC" for P10M5Op

Created 2019 Feb 20 14:18:05 UT using Find_Orb

Click here for an explanation of pseudo-MPECs

 
 Astrometry: 
     P10M5Op  C2019 02 04:nRAstrometryBdojd'Akkw((@redacted;UQ7?,e3fHD=bx1nAuF51
     P10M5Op  C2019 02 04cw?MclickX`sJ^M,fm%ux:^'(K)herehE%S9OVwH^V/1Zm^@3+EbF51
     P10M5Op  C2019 02 04)aAC^forlLe4LjhejqvA?4w(E1O]explanationRBw$K9[l\?9b^F51

Station data:
(F51) Pan-STARRS 1, Haleakala  (N20.707235 W156.255910)  US/Hawaii.
   Observers N. Primak, A. Schultz, S. Watters, J. Thiel, T. Goggia. Measurer
   PS1 Science Consortium. 1.8-m Ritchey-Chrétien + CCD.

Orbital elements:  P10M5Op
   Perihelion 2019 Jun 19.662170 +/- 61.5 TT = 15:53:31 (JD 2458654.162170)
Epoch 2019 Feb  4.0 TT = JDT 2458518.5   Earth MOID: 0.0015   Ve: 0.0174
M 192.15760895 +/- 110              (J2000 ecliptic)          AutoNEOCP
n   1.23720851 +/- 0.871            Peri.  174.58765 +/- 55
a   0.85935798 +/- 0.403            Node   130.79913 +/- 44
e   0.1622756 +/- 0.231             Incl.    0.35861 +/- 80
P   0.80/290.97d           H 27.9   G  0.15   U 12.6  SR
q 0.71990508 +/- 0.338    Q 0.99881088 +/- 10.7
From 3 observations 2019 Feb. 4 (37.1 min); mean residual 0".23
Residuals in arcseconds: 
190204 F51  .12-  .20+    190204 F51  .23+  .40-    190204 F51  .11-  .19+    

Ephemerides (geocentric):
Date (UTC) HH   RA              Dec         delta   r     elong  mag " sig PA
---- -- -- --  -------------   -----------  ------ ------ -----  --- ---- ---
2019 02 20 14  02 59 29.638   +20 39 47.16  .03222 .98197  77.0 24.1  39d 161
2019 02 20 15  02 59 17.944   +20 38 58.64  .03228 .98192  76.9 24.1  39d 161
2019 02 20 16  02 59 06.290   +20 38 10.22  .03234 .98187  76.8 24.1  39d 161
2019 02 20 17  02 58 54.676   +20 37 21.91  .03240 .98182  76.7 24.1  39d 161
2019 02 20 18  02 58 43.103   +20 36 33.72  .03246 .98176  76.7 24.1  39d 161
2019 02 20 19  02 58 31.570   +20 35 45.62  .03253 .98171  76.6 24.2  39d 161
2019 02 20 20  02 58 20.077   +20 34 57.64  .03259 .98166  76.5 24.2  39d 161
2019 02 20 21  02 58 08.623   +20 34 09.76  .03265 .98161  76.4 24.2  39d 161
2019 02 20 22  02 57 57.208   +20 33 21.98  .03271 .98155  76.3 24.2  39d 161
2019 02 20 23  02 57 45.832   +20 32 34.31  .03277 .98150  76.2 24.2  39d 161
2019 02 21 00  02 57 34.495   +20 31 46.75  .03284 .98145  76.1 24.2  39d 161
2019 02 21 01  02 57 23.197   +20 30 59.29  .03290 .98139  76.0 24.2  39d 161
2019 02 21 02  02 57 11.936   +20 30 11.93  .03296 .98134  76.0 24.2  39d 161
2019 02 21 03  02 57 00.714   +20 29 24.68  .03302 .98129  75.9 24.2  39d 161
2019 02 21 04  02 56 49.529   +20 28 37.53  .03308 .98123  75.8 24.2  39d 161
2019 02 21 05  02 56 38.382   +20 27 50.48  .03314 .98118  75.7 24.2  39d 161
2019 02 21 06  02 56 27.272   +20 27 03.53  .03321 .98113  75.6 24.2  39d 161
2019 02 21 07  02 56 16.199   +20 26 16.68  .03327 .98107  75.5 24.3  39d 161
2019 02 21 08  02 56 05.163   +20 25 29.94  .03333 .98102  75.4 24.3  39d 161
2019 02 21 09  02 55 54.164   +20 24 43.29  .03339 .98097  75.3 24.3  39d 161
2019 02 21 10  02 55 43.200   +20 23 56.75  .03345 .98091  75.3 24.3  39d 161
2019 02 21 11  02 55 32.273   +20 23 10.30  .03352 .98086  75.2 24.3  39d 161
2019 02 21 12  02 55 21.382   +20 22 23.95  .03358 .98080  75.1 24.3  39d 161
2019 02 21 13  02 55 10.526   +20 21 37.70  .03364 .98075  75.0 24.3  39d 161
2019 02 21 14  02 54 59.706   +20 20 51.55  .03370 .98070  74.9 24.3  39d 161
2019 02 21 15  02 54 48.920   +20 20 05.49  .03376 .98064  74.8 24.3  39d 161
2019 02 21 16  02 54 38.170   +20 19 19.54  .03382 .98059  74.7 24.3  39d 161
2019 02 21 17  02 54 27.454   +20 18 33.67  .03389 .98053  74.7 24.3  39d 161
2019 02 21 18  02 54 16.773   +20 17 47.91  .03395 .98048  74.6 24.3  39d 161
2019 02 21 19  02 54 06.126   +20 17 02.24  .03401 .98042  74.5 24.4  39d 161
2019 02 21 20  02 53 55.514   +20 16 16.66  .03407 .98037  74.4 24.4  39d 161
2019 02 21 21  02 53 44.935   +20 15 31.18  .03413 .98032  74.3 24.4  39d 161
2019 02 21 22  02 53 34.389   +20 14 45.79  .03420 .98026  74.2 24.4  39d 161
2019 02 21 23  02 53 23.877   +20 14 00.50  .03426 .98021  74.1 24.4  39d 161
2019 02 22 00  02 53 13.399   +20 13 15.30  .03432 .98015  74.1 24.4  39d 161
2019 02 22 01  02 53 02.953   +20 12 30.19  .03438 .98010  74.0 24.4  39d 161
2019 02 22 02  02 52 52.540   +20 11 45.17  .03444 .98004  73.9 24.4  39d 161
2019 02 22 03  02 52 42.160   +20 11 00.25  .03450 .97999  73.8 24.4  39d 161
2019 02 22 04  02 52 31.812   +20 10 15.42  .03457 .97993  73.7 24.4  39d 161
2019 02 22 05  02 52 21.496   +20 09 30.67  .03463 .97988  73.6 24.4  39d 161
2019 02 22 06  02 52 11.212   +20 08 46.02  .03469 .97982  73.6 24.4  39d 161
2019 02 22 07  02 52 00.960   +20 08 01.46  .03475 .97977  73.5 24.5  39d 161
2019 02 22 08  02 51 50.740   +20 07 16.99  .03481 .97971  73.4 24.5  39d 161
2019 02 22 09  02 51 40.551   +20 06 32.60  .03488 .97965  73.3 24.5  39d 161
2019 02 22 10  02 51 30.393   +20 05 48.31  .03494 .97960  73.2 24.5  39d 161
2019 02 22 11  02 51 20.266   +20 05 04.10  .03500 .97954  73.1 24.5  39d 161
2019 02 22 12  02 51 10.170   +20 04 19.98  .03506 .97949  73.1 24.5  39d 161
2019 02 22 13  02 51 00.105   +20 03 35.95  .03512 .97943  73.0 24.5  39d 161